Miscellaneous Local Product
Issued by NWS North Platte, NE

Home | Current Version | Previous Version | Graphics & Text | Print | Product List | Glossary On
Versions: 1 2 3 4 5 6 7 8 9 10 11 12 13 14 15 16 17 18 19 20 21 22 23 24 25 26 27 28 29 30 31 32 33 34 35 36 37 38 39 40 41 42 43 44 45 46 47 48 49 50
000
AXUS43 KLBF 241610
MISLBF


WESTERN AND NORTH CENTRAL NEBRASKA HOURLY WEATHER ROUNDUP
NATIONAL WEATHER SERVICE NORTH PLATTE NE
1000 AM CST MON NOV 24 2014

***STATIONS NOT REPORTING VARIABLES SUCH AS SKY/WEATHER OR
PRESSURE ARE PROVIDED BY THE NEBRASKA DEPARTMENT OF
ROADS...RAWS...AND APRS NETWORKS...AND ARE NOT UNDER
NATIONAL WEATHER SERVICE QUALITY CONTROL***

...OBSERVATIONS IN AND NEAR THE EASTERN PANHANDLE OF NEBRASKA...

CITY           SKY/WX    TMP DP  RH WIND       PRES   REMARKS
PINE RIDGE     MOSUNNY   31  22  69 NW8       29.84R WCI  23
CHADRON        CLOUDY    36  27  69 NW21G29   29.86R WCI  25
ALLIANCE       CLOUDY    35  25  66 NW22      29.84S WCI  23
SIDNEY         MOSUNNY   37  17  44 NW21G28   29.87R WCI  26
WHITECLAY        N/A     32  19  59 NW9         N/A  WCI  24
LISCO            N/A     40  21  45 W23         N/A  WCI  30
BIG SPRINGS      N/A     38  22  51 W12         N/A  WCI  30
$$

...OBSERVATIONS IN NORTH CENTRAL NEBRASKA...

CITY           SKY/WX    TMP DP  RH WIND       PRES   REMARKS
VALENTINE      SUNNY     25  15  66 NW17      29.84R WCI  12
THEDFORD       SUNNY     31  19  61 NW24G32   29.82R WCI  18
AINSWORTH      SUNNY     25  16  67 NW17G24   29.81R WCI  12
O`NEILL        PTSUNNY   26  19  74 NW26      29.78R WCI  10
ORD            SUNNY     29  15  56 NW22G33   29.79R WCI  15
BROKEN BOW     SUNNY     31  17  56 NW22G32   29.80R WCI  18
BROWNLEE         N/A     26  18  71 NW23        N/A  WCI  11
BREWSTER         N/A     32  18  55 NW22        N/A  WCI  19
COMSTOCK         N/A     34  18  51 NW21        N/A  WCI  22
$$

...OBSERVATIONS IN SOUTHWEST NEBRASKA AND FAR NORTHEAST COLORADO...

CITY           SKY/WX    TMP DP  RH WIND       PRES   REMARKS
WRAY           PTSUNNY   41  15  34 W17G23    29.89S
HOLYOKE        FAIR      41  19  42 NW14G22   29.87R
IMPERIAL       MOSUNNY   38  16  40 NW17      29.87R WCI  28
OGALLALA       SUNNY     38  18  44 NW10G22   29.86R WCI  31
NORTH PLATTE   SUNNY     34  20  56 NW15      29.84R WCI  24
MCCOOK         SUNNY     37  15  40 NW12      29.88R WCI  29
LEXINGTON      SUNNY     34  21  58 NW24      29.83R WCI  21
PAXTON           N/A     35  21  57 NW6         N/A  WCI  30
GOTHENBURG       N/A     32  19  59 NW14        N/A  WCI  22
CALLAWAY         N/A     31  21  65 NW21        N/A  WCI  19
$$

...SOME WEATHER OBSERVATIONS FROM AROUND THE REGION...

CITY           SKY/WX    TMP DP  RH WIND       PRES   REMARKS
DENVER         CLOUDY    36   9  32 W16       29.91R WCI  26
LARAMIE        PTSUNNY   26  11  52 NW26G36   29.90R WCI  10
CHEYENNE       PTSUNNY   31  13  47 NW22G35   29.89R WCI  18
SCOTTSBLUFF    CLOUDY    34  19  54 NW13      29.89R WCI  25
RAPID CITY     CLOUDY    27  21  78 E3        29.85R
PIERRE         SUNNY     22  13  68 N22G28    29.85R WCI   6
WINNER         FAIR      24  14  65 NW22G31   29.83R WCI   9
SIOUX FALLS    FLURRIES  20  13  74 NW26G33   29.66R WCI   2
OMAHA          FLURRIES  29  19  66 NW20G28   29.72R WCI  16
KANSAS CITY    CLOUDY    34  25  69 W17       29.72R WCI  23
WICHITA        MOSUNNY   45  21  38 NW23G32   29.87R
HAYS           SUNNY     43  16  33 NW20G29   29.88R
LIBERAL        SUNNY     39  23  52 W14       30.00R WCI  31
GOODLAND       SUNNY     39  14  36 NW23G30   29.90R WCI  28
$$



USA.gov is the U.S. government's official web portal to all federal, state and local government web resources and services.